Regional Weather Roundup
Issued by NWS Mobile, AL

Home | Current Version | Previous Version | Text Only | Print | Product List | Glossary On
Versions: 1 2 3 4 5 6 7 8 9 10 11 12 13 14 15 16 17 18 19 20 21 22 23 24 25 26 27
000
ASUS44 KMOB 230610
RWRMOB
REGIONAL WEATHER ROUNDUP
NATIONAL WEATHER SERVICE MOBILE AL
100 AM CDT WED APR 23 2014

NOTE: "FAIR" INDICATES FEW OR NO CLOUDS BELOW 12,000 FEET WITH NO
      SIGNIFICANT WEATHER AND/OR OBSTRUCTIONS TO VISIBILITY.

  * THESE STATIONS ARE PART OF THE UNIVERSITY OF SOUTH ALABAMA
    MESONET AND ARE NOT UNDER NWS OR FAA QUALITY CONTROL.

ALZ061>064-230700-
COASTAL ALABAMA

CITY           SKY/WX    TMP DP  RH WIND       PRES   REMARKS
MOBILE REG APT FAIR      63  62  97 NW3       29.92F
6HR MIN TEMP:  62; 6HR MAX TEMP:  73;

BROOKLEY FIELD FAIR      64  62  93 NW3       29.92F
6HR MIN TEMP:  64; 6HR MAX TEMP:  75;

USA CAMPUS*    NOT AVBL
DOG RIVER*     NOT AVBL


CITY           SKY/WX    TMP DP  RH WIND       PRES   REMARKS
MOUNT VERNON*  NOT AVBL
SARALAND*      NOT AVBL
BAY MINETTE*   NOT AVBL
LOXLEY*        NOT AVBL
ROBERTSDALE*   NOT AVBL
FAIRHOPE*      NOT AVBL
ELBERTA*       NOT AVBL
FOLEY*         NOT AVBL
GRAND BAY*       N/A     63  63 100 VRB2      29.90S
DAUPHIN ISLND* NOT AVBL
BON SCOUR NWR* NOT AVBL
GULF SHORES    FAIR      65  65  99 W3        29.90F FOG

$$

ALZ051>060-230700-
INTERIOR SOUTHWEST AND SOUTH CENTRAL ALABAMA

CITY           SKY/WX    TMP DP  RH WIND       PRES   REMARKS
GREENVILLE     FAIR      59  57  94 CALM      29.90S FOG
6HR MIN TEMP:  58; 6HR MAX TEMP:  71;

EVERGREEN      FOG       61  58  90 CALM      29.92F VSB 1
6HR MIN TEMP:  61; 6HR MAX TEMP:  72;

CASTLEBERRY*   NOT AVBL
ATMORE*          N/A     63  63 100 CALM      29.93F
DIXIE*         NOT AVBL
ANDALUSIA/OPP  MOCLDY    66  61  82 CALM      29.90F
6HR MIN TEMP:  66; 6HR MAX TEMP:  74;

ANDALUSIA*     NOT AVBL
FLORALA APT    FAIR      61  59  93 CALM      29.91F
6HR MIN TEMP:  60; 6HR MAX TEMP:  73;

FLORALA*         N/A     59  57  94 CALM      29.89S

$$

FLZ001>006-230700-
WESTERN FLORIDA PANHANDLE

CITY           SKY/WX    TMP DP  RH WIND       PRES   REMARKS
PENSACOLA      FAIR      67  64  90 NW5       29.90S FOG
6HR MIN TEMP:  67; 6HR MAX TEMP:  73;

NAS PENSACOLA  FAIR      65  65 100 CALM      29.90S FOG
6HR MIN TEMP:  65; 6HR MAX TEMP:  69;

MILTON         FAIR      64  62  93 NW3       29.90S FOG
6HR MIN TEMP:  64; 6HR MAX TEMP:  70;

WHTNG S FIELD  FOG       65  62  90 CALM      29.90S VSB 1/2
6HR MIN TEMP:  65; 6HR MAX TEMP:  72;



CITY           SKY/WX    TMP DP  RH WIND       PRES   REMARKS
WALNUT HILL*   NOT AVBL
JAY*           NOT AVBL
DUKE FIELD     FAIR      64  64 100 NW3       29.89F
CRESTVIEW      FAIR      63  61  93 CALM      29.91F FOG
6HR MIN TEMP:  62; 6HR MAX TEMP:  72;

VALPARAISO     MOCLDY    65  65 100 NW3       29.89F
6HR MIN TEMP:  65; 6HR MAX TEMP:  68;

DESTIN         FAIR      68  64  87 NW3       29.89F
6HR MIN TEMP:  68; 6HR MAX TEMP:  69;


$$

MSZ076-079-230700-
INTERIOR SOUTHEAST MISSISSIPPI

CITY           SKY/WX    TMP DP  RH WIND       PRES   REMARKS
LEAKESVILLE*     N/A     59  57  94 CALM      29.92F
AGRICOLA*      NOT AVBL

$$

MARINE OBSERVATIONS

STATION/POSITION TIME  TEMP    WIND        PRES    WAVE
                       AIR SEA DIR/SP/G            HT/PER
                 (UTC) (F)     (DEG/KT/KT) (MB)    (FT/S)
PASCAGOULA       0600   67     360/  7/  9 1012.3S
PETIT BOIS ISLND 0600   69     340/ 10/ 11 1012.9S
GRAND BAY        0500   68     340/  5     1013.0S
KATRINA CUT      0500   69     270/  2     1013.5S
CEDAR POINT      0500   68     290/  4     1012.5S
E DAUPHIN ISLAND 0600   68     290/  5/  5 1012.4F
MIDDLE BAY LIGHT 0500   67     320/  8     1012.5R
USCG MOBILE BAY  0600   67 69  340/  4/  6 1011.7F
STATE DOCKS      0600   67 66              1012.6S
MEAHER PARK      0500   65      10/  1     1013.2S
WEEKS BAY        0500   58                   N/A
FORT MORGAN      0600   68     320/  7/  7 1012.3S
12 S ORANGE BCH  0600   69 69  290/  8/  8 1012.6F   1/ 4
PENSACOLA BAY    0600   68 69  310/  5/  8 1012.7F
64 S DAUPHIN ISL 0550   69 69  250/ 10/ 10 1013.2F
67 S FORT MORGAN 0500   68                 1013.2S

$$

SELECTED LOCATIONS ACROSS THE REGION

CITY           SKY/WX    TMP DP  RH WIND       PRES   REMARKS
NEW ORLEANS    FAIR      67  64  90 CALM      29.93S
GULFPORT       FAIR      68  63  84 N6        29.91S
PASCAGOULA AP  FAIR      64  63  96 N3        29.91F FOG
PASCAGOULA*      N/A     66  66 100 N5        29.91S
HATTIESBURG    FAIR      58  57  97 CALM      29.93F FOG
LAUREL         FAIR      59  57  94 NW5       29.93F
MERIDIAN       FOG       57  56  96 CALM      29.92F VSB 1/4
JACKSON        FOG       57  56  96 CALM      29.95R VSB 3/4
MONTGOMERY     FAIR      61  59  93 CALM      29.90S FOG
TROY           FOG       59  57  93 CALM      29.91S VSB 1/4
KINSTON*       NOT AVBL
GENEVA*          N/A     57  55  94 CALM      29.92F
ASHFORD*       NOT AVBL
DOTHAN         FAIR      63  60  90 CALM      29.93S
PANAMA CITY    CLOUDY    66  63  90 CALM      29.89F FOG

$$




USA.gov is the U.S. government's official web portal to all federal, state and local government web resources and services.